リニア彗星

C/2010 S1 ( LINEAR )

English version
Home page
Updated on August 9, 2016

---------------------------------------------------------------------

・ プロフィール

発見日 2010年9月21日
発見光度 18.4等
発見者 Lincoln Laboratory Near-Earth Asteroid Research project

・ 写真集

・ 軌道要素

Epoch 2013 May 28.0 TT = JDT 2456440.5
T 2013 May 20.29758 TT                                  MPCW
q   5.8999043            (2000.0)            P               Q
z  -0.0003255      Peri.  118.61456     +0.53547247     -0.22396544
 +/-0.0000001      Node    93.43035     -0.69559918     -0.66377836
e   1.0019207      Incl.  125.33578     +0.47896869     -0.71360897
From 8092 observations 2010 Sept. 21-2015 July 19, mean residual 0".5.

・ 星図

・ 光度変化

        m1 = -2.0 + 5 logΔ + 15.0 log r

---------------------------------------------------------------------

軌道要素はM.P.E.C. 2015-Q71に掲載されたものです。
星図はステラナビゲータ Ver.8 (アストロアーツ) で作成したものです。
光度グラフはComet for Windowsで作成したものです。

---------------------------------------------------------------------

Copyright(C) Seiichi Yoshida (comet@aerith.net). All rights reserved.